Weather History for Marion, IN

Change the Weather History Date:

Sunday, June 30, 2013

  Actual Average (KMIE) Record (KMIE)
Temperature  
Mean Temperature 66 °F 74 °F  
Max Temperature 71 °F 85 °F 92 °F (1971)
Min Temperature 61 °F 64 °F 48 °F (1988)
Degree Days  
Heating Degree Days 0 0  
Month to date heating degree days 21  
Since 1 June heating degree days 24  
Since 1 July heating degree days 5783  
Cooling Degree Days 1 10  
Month to date cooling degree days 216  
Year to date cooling degree days 299  
Since 1 June cooling degree days 216  
Growing Degree Days 16 (Base 50)    
Moisture  
Dew Point 61 °F    
Average Humidity 84    
Maximum Humidity 94    
Minimum Humidity 67    
Precipitation  
Precipitation 0.80 in 0.15 in 1.13 in (1987)
Month to date precipitation 4.66  
Year to date precipitation 20.23  
Sea Level Pressure  
Sea Level Pressure 29.81 in    
Wind  
Wind Speed 8 mph (NE)    
Max Wind Speed 17 mph    
Max Gust Speed 23 mph    
Visibility 8 miles    
Events Rain    
T = Trace of Precipitation, MM = Missing Value Source: NWS Daily Summary

Daily Weather History Graph

Daily Weather History Graph

Search for Another Location

Airport:

Trip Planner

Search our weather history database for the weather conditions in past years. The results will help you decide how hot, cold, wet, or windy it might be!

Date:

Astronomy

Jun. 30, 2013 Rise Set
Actual Time 6:15 AM EDT 9:17 PM EDT
Civil Twilight 5:42 AM EDT 9:50 PM EDT
Nautical Twilight 5:00 AM EDT 10:32 PM EDT
Astronomical Twilight 4:11 AM EDT 11:21 PM EDT
Moon 1:15 AM EDT (6/30) 2:30 PM EDT (6/30)
Length of Visible Light 16h 07m
Length of Day
15h 01m
Last Quarter, 45% of the Moon is Illuminated
Jun 30
Last Quarter
Jul 8
New
Jul 15
First Quarter
Jul 22
Full
Jul 29
Last Quarter

Hourly Weather History & Observations

Time (EDT) Temp. Dew Point Humidity Pressure Visibility Wind Dir Wind Speed Gust Speed Precip Events Conditions
12:15 AM 64.4 °F 62.2 °F 93% 29.70 in 10.0 mi NE 3.5 mph - N/A   Overcast
12:35 AM 64.4 °F 62.1 °F 92% 29.70 in 10.0 mi NNE 5.8 mph - N/A   Overcast
12:55 AM 64.6 °F 62.2 °F 92% 29.71 in 10.0 mi NNE 5.8 mph - N/A   Mostly Cloudy
1:15 AM 64.6 °F 62.6 °F 93% 29.71 in 10.0 mi NNE 5.8 mph - N/A   Mostly Cloudy
1:35 AM 64.6 °F 62.6 °F 93% 29.72 in 7.0 mi NE 6.9 mph - N/A   Overcast
1:55 AM 64.6 °F 62.6 °F 93% 29.72 in 7.0 mi NE 8.1 mph - N/A   Overcast
2:15 AM 64.4 °F 62.6 °F 94% 29.72 in 7.0 mi NE 5.8 mph - N/A   Mostly Cloudy
2:35 AM 64.2 °F 62.1 °F 93% 29.72 in 7.0 mi NE 4.6 mph - N/A   Overcast
2:55 AM 64.2 °F 62.1 °F 93% 29.71 in 5.0 mi NE 5.8 mph - N/A   Overcast
3:15 AM 64.0 °F 62.1 °F 93% 29.71 in 5.0 mi NE 5.8 mph - N/A   Overcast
3:35 AM 64.4 °F 62.4 °F 93% 29.71 in 5.0 mi NNE 5.8 mph - N/A   Overcast
3:55 AM 64.4 °F 62.6 °F 94% 29.71 in 5.0 mi NNE 6.9 mph - N/A   Overcast
4:15 AM 64.4 °F 62.6 °F 94% 29.71 in 5.0 mi NNE 6.9 mph - N/A   Overcast
4:35 AM 64.4 °F 62.6 °F 94% 29.72 in 7.0 mi NNE 6.9 mph - N/A   Overcast
4:55 AM 64.4 °F 62.1 °F 92% 29.72 in 7.0 mi NE 8.1 mph - N/A   Overcast
5:15 AM 63.9 °F 61.3 °F 91% 29.73 in 5.0 mi ENE 8.1 mph - 0.02 in Rain Heavy Rain
5:35 AM 63.0 °F 60.6 °F 92% 29.74 in 2.0 mi NE 9.2 mph - 0.12 in Rain Rain
5:55 AM 62.2 °F 60.3 °F 93% 29.73 in 5.0 mi ENE 11.5 mph - 0.21 in Rain Rain
6:15 AM 61.9 °F 59.7 °F 93% 29.74 in 4.0 mi NE 9.2 mph - 0.05 in Rain Rain
6:35 AM 61.7 °F 59.5 °F 93% 29.75 in 3.0 mi ENE 8.1 mph - 0.11 in Rain Rain
6:55 AM 61.3 °F 59.4 °F 93% 29.76 in 1.2 mi East 5.8 mph - 0.17 in Rain Heavy Rain
7:15 AM 61.2 °F 59.4 °F 94% 29.76 in 1.0 mi NE 6.9 mph - 0.04 in Rain Rain
7:35 AM 61.2 °F 59.4 °F 94% 29.76 in 7.0 mi NE 8.1 mph - 0.10 in   Overcast
7:55 AM 61.3 °F 59.4 °F 93% 29.77 in 5.0 mi NE 6.9 mph - 0.15 in   Overcast
8:15 AM 61.5 °F 59.5 °F 93% 29.78 in 3.0 mi ENE 9.2 mph - 0.03 in Rain Rain
8:35 AM 61.7 °F 59.9 °F 94% 29.77 in 7.0 mi NE 8.1 mph - 0.07 in   Overcast
8:55 AM 61.9 °F 60.3 °F 94% 29.78 in 5.0 mi ENE 8.1 mph - 0.11 in   Overcast
9:15 AM 62.2 °F 60.6 °F 94% 29.78 in 7.0 mi NE 9.2 mph - 0.02 in Rain Light Rain
9:35 AM 62.8 °F 61.2 °F 94% 29.79 in 7.0 mi NE 13.8 mph - 0.05 in Rain Light Rain
9:55 AM 63.5 °F 61.7 °F 94% 29.79 in 7.0 mi NE 10.4 mph - 0.07 in   Overcast
10:15 AM 63.7 °F 61.7 °F 93% 29.80 in 7.0 mi NE 10.4 mph 16.1 mph 0.02 in   Overcast
10:35 AM 63.5 °F 61.5 °F 93% 29.80 in 7.0 mi ENE 10.4 mph - 0.04 in Rain Light Rain
10:55 AM 63.9 °F 61.7 °F 93% 29.81 in 10.0 mi NE 10.4 mph - 0.06 in Rain Light Rain
11:15 AM 63.7 °F 61.5 °F 93% 29.82 in 10.0 mi NE 10.4 mph 16.1 mph 0.01 in   Overcast
11:35 AM 63.1 °F 61.0 °F 93% 29.83 in 7.0 mi NE 9.2 mph - 0.02 in   Overcast
11:55 AM 63.7 °F 61.7 °F 93% 29.83 in 7.0 mi NE 10.4 mph - 0.03 in   Overcast
12:15 PM 64.2 °F 62.1 °F 93% 29.83 in 7.0 mi NE 9.2 mph - N/A Rain Light Rain
12:35 PM 65.8 °F 62.6 °F 89% 29.83 in 10.0 mi ENE 13.8 mph 18.4 mph N/A   Overcast
12:55 PM 67.3 °F 62.6 °F 85% 29.83 in 10.0 mi NNE 15.0 mph 19.6 mph N/A   Overcast
1:15 PM 67.1 °F 61.3 °F 82% 29.84 in 7.0 mi NE 15.0 mph 21.9 mph N/A   Overcast
1:35 PM 66.0 °F 60.4 °F 82% 29.84 in 7.0 mi ENE 12.7 mph 18.4 mph N/A   Overcast
1:55 PM 65.8 °F 61.2 °F 85% 29.84 in 10.0 mi NE 9.2 mph 17.3 mph N/A   Overcast
2:15 PM 67.5 °F 61.3 °F 81% 29.84 in 10.0 mi ENE 16.1 mph 23.0 mph N/A   Overcast
2:35 PM 68.7 °F 61.0 °F 76% 29.84 in 10.0 mi NE 17.3 mph - N/A   Overcast
2:55 PM 68.4 °F 60.8 °F 77% 29.84 in 7.0 mi NE 15.0 mph 19.6 mph N/A   Overcast
3:15 PM 68.5 °F 60.6 °F 76% 29.83 in 10.0 mi NE 10.4 mph 19.6 mph N/A   Overcast
3:35 PM 68.9 °F 61.0 °F 76% 29.84 in 10.0 mi NE 13.8 mph 18.4 mph N/A   Overcast
3:55 PM 69.1 °F 60.6 °F 74% 29.84 in 10.0 mi NE 12.7 mph 18.4 mph N/A   Overcast
4:15 PM 70.3 °F 61.0 °F 72% 29.84 in 10.0 mi NE 13.8 mph 17.3 mph N/A   Overcast
4:35 PM 70.7 °F 61.0 °F 71% 29.84 in 7.0 mi NE 12.7 mph - N/A   Overcast
4:55 PM 70.9 °F 61.0 °F 71% 29.84 in 10.0 mi NE 10.4 mph 17.3 mph N/A   Overcast
5:15 PM 71.1 °F 61.0 °F 70% 29.85 in 7.0 mi ENE 9.2 mph - N/A   Overcast
5:35 PM 71.4 °F 60.4 °F 68% 29.84 in 7.0 mi NE 13.8 mph 18.4 mph N/A   Overcast
5:55 PM 71.6 °F 60.1 °F 67% 29.85 in 10.0 mi NE 16.1 mph - N/A   Overcast
6:15 PM 69.6 °F 59.4 °F 70% 29.85 in 10.0 mi NE 15.0 mph 20.7 mph N/A   Overcast
6:35 PM 69.3 °F 59.0 °F 70% 29.85 in 7.0 mi NE 9.2 mph 20.7 mph N/A   Mostly Cloudy
6:55 PM 69.1 °F 58.8 °F 70% 29.85 in 7.0 mi NE 10.4 mph 17.3 mph N/A   Scattered Clouds
7:15 PM 69.1 °F 58.6 °F 69% 29.86 in 7.0 mi NE 10.4 mph 17.3 mph N/A   Clear
7:35 PM 69.3 °F 59.0 °F 70% 29.87 in 10.0 mi NE 9.2 mph - N/A   Scattered Clouds
7:55 PM 69.1 °F 58.8 °F 70% 29.88 in 10.0 mi NNE 8.1 mph - N/A   Mostly Cloudy
8:15 PM 69.1 °F 58.6 °F 69% 29.88 in 10.0 mi NE 9.2 mph - N/A   Overcast
8:35 PM 68.7 °F 58.8 °F 71% 29.88 in 10.0 mi NE 6.9 mph - N/A   Overcast
8:55 PM 68.5 °F 59.0 °F 72% 29.89 in 7.0 mi NE 6.9 mph - N/A   Overcast
9:15 PM 68.2 °F 59.4 °F 73% 29.89 in 7.0 mi NE 6.9 mph - N/A   Overcast
9:35 PM 67.8 °F 59.7 °F 75% 29.89 in 10.0 mi NE 4.6 mph - N/A   Overcast
9:55 PM 67.3 °F 59.9 °F 77% 29.90 in 10.0 mi NE 4.6 mph - N/A   Overcast
10:15 PM 67.3 °F 59.2 °F 75% 29.90 in 7.0 mi ENE 8.1 mph - N/A   Overcast
10:35 PM 68.0 °F 58.1 °F 71% 29.91 in 10.0 mi ENE 8.1 mph - N/A   Overcast
10:55 PM 68.0 °F 57.4 °F 69% 29.91 in 10.0 mi NE 9.2 mph - N/A   Overcast
11:15 PM 67.6 °F 57.4 °F 70% 29.91 in 10.0 mi ENE 6.9 mph - N/A   Overcast
11:35 PM 67.5 °F 57.4 °F 70% 29.91 in 10.0 mi ENE 5.8 mph - N/A   Overcast
11:55 PM 67.1 °F 57.4 °F 71% 29.91 in 10.0 mi ENE 6.9 mph - N/A   Overcast